Location: Unspecified
(40.9799°N, 76.1133°W)
Time: 13:37:21
(UTC-04:00)

ISS - Visible Passes

Search period start: 23 June 2021 00:00
Search period end: 03 July 2021 00:00
Orbit: 417 x 422 km, 51.6° (Epoch: 22 June)

Date Brightness Start Highest point End Pass type
(mag) Time Alt. Az. Time Alt. Az. Time Alt. Az.
25 Jun -1.2 04:24:24 10° SSE 04:26:10 14° SE 04:27:55 10° E visible
27 Jun -2.9 04:25:23 15° SSW 04:27:46 39° SE 04:30:57 10° ENE visible
28 Jun -2.2 03:39:47 22° SSE 03:40:27 23° SE 03:43:11 10° E visible
29 Jun -1.2 02:54:07 13° ESE 02:54:07 13° ESE 02:54:59 10° E visible
29 Jun -3.6 04:27:04 16° WSW 04:29:36 69° NW 04:32:58 10° NE visible
30 Jun -3.8 03:41:21 46° SSW 03:42:11 71° SE 03:45:32 10° ENE visible
01 Jul -2.5 02:55:34 34° ESE 02:55:34 34° ESE 02:57:59 10° ENE visible
01 Jul -2.2 04:28:40 10° W 04:31:40 29° NNW 04:34:41 10° NE visible
02 Jul -1.0 02:09:46 13° E 02:09:46 13° E 02:10:14 10° E visible
02 Jul -2.8 03:42:42 26° W 03:44:08 42° NNW 03:47:22 10° NE visible
